Location: Port Hueneme
(34.1478°N, 119.1951°W)
Time: 22:34:49
(UTC+00:00)

OAO 1 - Visible Passes

Search period start: 18 November 2025 00:00
Search period end: 28 November 2025 00:00
Orbit: 772 x 781 km, 35.0° (Epoch: 17 November)

Date Brightness Start Highest point End Pass type
(mag) Time Alt. Az. Time Alt. Az. Time Alt. Az.
18 Nov 7.4 10:59:05 12° E 10:59:05 12° E 10:59:28 10° E visible
18 Nov 4.4 12:39:25 61° WNW 12:40:23 81° N 12:45:52 10° E visible
19 Nov 5.1 12:04:00 55° ENE 12:04:00 55° ENE 12:08:15 10° E visible
19 Nov 4.6 13:44:20 13° W 13:49:12 83° SSW 13:54:40 10° ESE visible
20 Nov 6.6 11:28:36 24° E 11:28:36 24° E 11:30:39 10° E visible
20 Nov 4.4 13:08:55 31° W 13:11:36 88° SSW 13:17:05 10° ESE visible
21 Nov 4.3 12:33:30 74° WNW 12:34:01 89° N 12:39:30 10° E visible
22 Nov 5.4 11:58:06 46° E 11:58:06 46° E 12:01:53 10° E visible
22 Nov 5.0 13:38:26 16° W 13:42:38 51° SSW 13:47:54 10° SE visible
23 Nov 6.8 11:22:43 20° E 11:22:43 20° E 11:24:17 10° E visible
23 Nov 4.8 13:03:02 35° W 13:05:05 56° SSW 13:10:25 10° ESE visible
24 Nov 4.6 12:27:40 62° S 12:27:40 62° S 12:32:54 10° ESE visible
24 Nov 6.1 14:09:17 10° W 14:13:21 21° SSW 14:17:24 10° SSE visible
25 Nov 5.9 11:52:20 33° SE 11:52:20 33° SE 11:55:22 10° ESE visible
25 Nov 5.9 13:32:40 15° WSW 13:35:50 25° SSW 13:40:12 10° SSE visible
26 Nov 7.2 11:17:02 14° ESE 11:17:02 14° ESE 11:17:49 10° ESE visible
26 Nov 5.6 12:57:22 27° SW 12:58:19 28° SSW 13:02:56 10° SSE visible
27 Nov 5.8 12:22:06 29° S 12:22:06 29° S 12:25:37 10° SE visible
